Zurück zum Katalog

SL-14 DEB

AktivPO
NORAD 45347·DEBRIS·🇷🇺 Russia

Gestartet Aug 15, 1991 von Plesetsk Cosmodrome

Loading…

Nächste Überflüge (nächste 24 Stunden)

TLE

AktuellSource: Space-Track

Epoche: Sep 13, 2026, 10:46 UTC

1 45347U 91056CG  26256.44923086  .00006886  00000-0  42246-2 0  9999
2 45347  82.6336 302.3939 0107620  15.5588 344.8846 14.02751659328404

Verfolge SL-14 DEB in Echtzeit mit AllMySat

Download on the App Store